This is the latest recevied weather packets stored in our database for station/object S54L-12. If no packets are shown the sender has not sent any weather packets the latest 10 day(s).
| Time | Temp. | Humidity | Pressure | Rain* | Wind** | Luminosity | Snow |
|---|---|---|---|---|---|---|---|
| 1777569329 | 7.22° C | 39% | 929.7 hPa | - | - | - | - |
| 1777568429 | 7.78° C | 39% | 929.5 hPa | - | - | - | - |
| 1777567529 | 8.33° C | 38% | 929.5 hPa | - | - | - | - |
| 1777566629 | 8.89° C | 35% | 929.5 hPa | - | - | - | - |
| 1777565729 | 10° C | 35% | 929.5 hPa | - | - | - | - |
| 1777564829 | 10.56° C | 35% | 929.6 hPa | - | - | - | - |
| 1777563929 | 11.11° C | 33% | 929.6 hPa | - | - | - | - |
| 1777563028 | 10.56° C | 33% | 929.6 hPa | - | - | - | - |
| 1777562128 | 10° C | 33% | 929.6 hPa | - | - | - | - |
| 1777561228 | 10° C | 34% | 929.8 hPa | - | - | - | - |
| 1777560329 | 10° C | 34% | 929.7 hPa | - | - | - | - |
| 1777559428 | 10° C | 35% | 929.7 hPa | - | - | - | - |
| 1777558528 | 10° C | 35% | 929.7 hPa | - | - | - | - |
| 1777558388 | 10° C | 33% | 929.7 hPa | - | - | - | - |
| 1777557488 | 10.56° C | 34% | 929.8 hPa | - | - | - | - |
| 1777556588 | 10.56° C | 32% | 929.7 hPa | - | - | - | - |
| 1777555688 | 11.67° C | 30% | 929.7 hPa | - | - | - | - |
| 1777554788 | 11.67° C | 30% | 929.8 hPa | - | - | - | - |
| 1777553888 | 11.67° C | 30% | 929.9 hPa | - | - | - | - |
| 1777552988 | 11.67° C | 30% | 930 hPa | - | - | - | - |
| 1777552088 | 11.11° C | 32% | 930.2 hPa | - | - | - | - |
| 1777551188 | 11.67° C | 32% | 930.4 hPa | - | - | - | - |
| 1777550287 | 11.11° C | 30% | 930.5 hPa | - | - | - | - |
| 1777549387 | 11.11° C | 31% | 930.6 hPa | - | - | - | - |
| 1777548487 | 11.11° C | 35% | 930.6 hPa | - | - | - | - |
* Rain since midnight (hover to see other rain measurements)
** Current wind speed in m/s (hover to see current wind gust speed)